{"data":{"norad_id":85237,"epoch":"2026-05-13T08:49:18.675264Z","epoch_age_seconds":1075972,"freshness":"AGED","line1":"1 85237U          26133.36757726  .00002704  00000+0  54141-3 0  9993","line2":"2 85237  65.5306 176.2991 0519400 318.8845  37.4151 14.02704030629608","mean_motion":14.0270403,"eccentricity":0.05194,"inclination_deg":65.5306,"raan_deg":176.2991,"arg_perigee_deg":318.8845,"mean_anomaly_deg":37.4151,"bstar":0.00054141,"rev_number":62960,"period_min":102.65886239737,"perigee_km":507.22801133351,"apogee_km":1261.6651960869,"semimajor_km":7262.5836037102,"source":"CELESTRAK","updated_at":"2026-05-25T13:38:11.431922Z"}}